STARLINK-32443, 61672

Orbit data source: Space-Track

STARLINK-32443, 61672 is a payload satellite owned by SpaceX/Seattle (US) in LEO that was launched on Sat, 26 Oct 2024 UTC via an FALCON 9 launch vehicle from the Air Force Eastern Test Range (AFETR). Payload-class satellites include a variety of spacecraft equipped with specific instruments for various scientific and technological missions. These include communications satellites like Starlink; space stations such as the ISS; scientific satellites like the Hubble; Earth observation satellites from companies like Planet Labs, Umbra, and HawkEye 360; GPS; miniature CubeSats for education and research; and military/defense satellites.

Loading next visibility...
Identifier
61672, 2024-193M
Orbit
LEO
Country
Flag of USUS
Related business
Manufacturer
SpaceX/Seattle
Mission
Operational Commercial Communications
Bus & Motor
STARLINK V2M, Unknown motor
Mass
730 kg wet, ~700 kg dry
Launch date (UTC)
2024-10-26 (11 months ago)
Launch vehicle
FALCON 9
Launch site
Air Force Eastern Test Range (AFETR)
Object type
Payload
Rocket body
Debris
Shape & HBR
Box + 2 Pan, 14.5 m
Radar Cross Section
36.964 m², Large (>1 m²)

Expand to show TLE details & history
Last TLE update: 11 hours ago

TLE from 11 hours ago
0 STARLINK-32443
1 61672U 24193M   25261.16287334  .00001634  00000-0  67301-4 0  9996
2 61672  53.1596 172.2599 0001335  65.1076 295.0063 15.30188647 50110
Epoch: 2025-09-18T03:54Z
TLE epoch observation values (Epoch: 2025-09-18T03:54:32.256Z)
Latitude
-0.00006°
Longitude
116.29704°
Altitude
475.762 km
Speed
7.629 km/s
True Right ascension
11h 29m 02s
True Declination
0° 00' 00"
Sunlit
Object was in daylight at epoch
Visualization orbit readout
Latitude
Unknown
Longitude
Unknown
Altitude
Unknown
Speed
Unknown
Apparent Right ascension
Unknown
Apparent Declination
Unknown
Sunlit
N/A
Visualization observer readout
Local Sidereal Time
07:21:36
Azimuth
Unknown
Elevation
Unknown
Doppler factor
Unknown
Orbital elements
Apogee altitude
476.42 km
Perigee altitude
474.591 km
Semi-major axis
6,853.642 km
Eccentricity
0.00013
Inclination
53.1596°
RAAN
172.2599°
Arg. of periapsis
65.1076°
True anomaly
294.99244°
Mean anomaly
295.0063°
Eccentric anomaly
294.99937°
Mean motion
3.82526 °/min
Orbital period
94.11 mins
BSTAR
0.000067301
Loading maneuver chart data...
Computing Atmospheric mass density...
Loading historical data...
Loading historical data...
Loading historical data...
Loading historical data...
Loading historical data...
Loading historical data...
Loading historical data...

Documentation

Showing up to 5 results
|